CZ-6A DEB, 55867

Orbit data source: Space-Track

CZ-6A DEB, 55867 is space debris in SSO originally from a launch on Fri, 11 Nov 2022 UTC launched from the Taiyaun Space Center, China (TSC). Debris objects in space refer to the collection of defunct objects orbiting the Earth. Examples of debris include non-operational satellites, rocket bodies, and fragments generated from explosions, collisions, or faulty payload assembly.

Loading next visibility...
Identifier
55867, 2022-151ZP
Orbit
SSO
Country
Flag of CNCN / PRC
Related business
Manufacturer
SAST
Mission
Spacecraft
Bus & Motor
Unknown
Mass
Unknown
Launch date (UTC)
2022-11-11 (3 years ago)
Launch vehicle
Unknown
Launch site
Taiyaun Space Center, China (TSC)
Object type
Payload
Rocket body
Debris
Shape & HBR
Unknown shape, 0.1 m
Radar Cross Section
Small (<0.1 m²)

Expand to show TLE details & history
Last TLE update: 15 hours ago

TLE from 15 hours ago
0 CZ-6A DEB
1 55867U 22151ZP  26130.20119102  .00752355  00000-0  83774-2 0  9998
2 55867  98.6024 215.2136 0020984 291.9911  67.9112 15.60198116173912
Epoch: 2026-05-10T04:49Z
TLE epoch observation values (Epoch: 2026-05-10T04:49:42.904Z)
Latitude
-0.00005°
Longitude
-85.22283°
Altitude
384.877 km
Speed
7.682 km/s
True Right ascension
14h 20m 51s
True Declination
0° 00' 00"
Sunlit
Object was in full shadow at epoch
Visualization orbit readout
Latitude
Unknown
Longitude
Unknown
Altitude
Unknown
Speed
Unknown
Apparent Right ascension
Unknown
Apparent Declination
Unknown
Sunlit
N/A
Visualization observer readout
Local Sidereal Time
03:38:32
Azimuth
Unknown
Elevation
Unknown
Doppler factor
Unknown
Orbital elements
Apogee altitude
398.243 km
Perigee altitude
369.863 km
Semi-major axis
6,762.19 km
Eccentricity
0.0021
Inclination
98.6024°
RAAN
215.2136°
Arg. of periapsis
291.9911°
True anomaly
68.13423°
Mean anomaly
67.9112°
Eccentric anomaly
68.02269°
Mean motion
3.90312 °/min
Orbital period
92.23 mins
BSTAR
0.0083774
Loading maneuver chart data...
Computing Atmospheric mass density...
Loading historical data...
Loading historical data...
Loading historical data...
Loading historical data...
Loading historical data...
Loading historical data...
Loading historical data...

Documentation

Showing up to 5 results
|